Overview Statistics Trail Chart Weather Telemetry Raw packets
 

This is the latest recevied weather packets stored in our database for station/object KO4DYK. If no packets are shown the sender has not sent any weather packets the latest 10 day(s).

<< 1 2 3 4 5 >>
Time Temp. Humidity Pressure Rain* Wind** Luminosity Snow
1788659741 27.22° C 87% 1013 hPa 0 mm - 0 W/m² -
1788659435 27.78° C 87% 1013 hPa 0 mm - 0 W/m² -
1788659130 27.78° C 86% 1013 hPa 0 mm - 0 W/m² -
1788658826 27.78° C 86% 1013.1 hPa 0 mm - 0 W/m² -
1788658521 27.78° C 84% 1012.9 hPa 0 mm - 0 W/m² -
1788658217 28.33° C 84% 1012.9 hPa 0 mm - 0 W/m² -
1788657912 28.33° C 83% 1012.9 hPa 0 mm - 0 W/m² -
1788657612 28.33° C 82% 1012.8 hPa 0 mm - 0 W/m² -
1788657308 28.33° C 81% 1012.7 hPa 0 mm - 0 W/m² -
1788657008 28.33° C 83% 1012.4 hPa 0 mm - 0 W/m² -
1788656703 28.89° C 82% 1012.5 hPa 0 mm - 0 W/m² -
1788656399 28.89° C 83% 1012.6 hPa 0 mm - 0 W/m² -
1788656098 29.44° C 81% 1012.3 hPa 0 mm - 0 W/m² -
1788655797 29.44° C 79% 1012.4 hPa 0 mm - 0 W/m² -
1788655497 30° C 78% 1012.4 hPa 0 mm - 0 W/m² -
1788655192 30° C 76% 1012.4 hPa 0 mm - 0 W/m² -
1788654887 30.56° C 75% 1012.3 hPa 0 mm - 0 W/m² -
1788654583 30.56° C 73% 1012.1 hPa 0 mm - 0 W/m² -
1788654283 31.11° C 72% 1012.3 hPa 0 mm - 0 W/m² -
1788653978 31.67° C 71% 1012.4 hPa 0 mm - 0 W/m² -
1788653674 31.67° C 70% 1012.3 hPa 0 mm - 2 W/m² -
1788653369 32.78° C 68% 1012.2 hPa 0 mm - 5 W/m² -
1788653064 32.78° C 66% 1012.2 hPa 0 mm - 9 W/m² -
1788652759 33.33° C 66% 1012.2 hPa 0 mm - 12 W/m² -
1788652458 33.89° C 67% 1012.2 hPa 0 mm - 15 W/m² -

* Rain latest hour (hover to see other rain measurements)
** Current wind speed in m/s (hover to see current wind gust speed)